When you browse on this site, cookies collect data to enhance your experience and personalize the content and advertising you see.
Visit our Privacy Policy to learn more. By continuing to use the site, you agree to this use of cookies and data.
  • In Österreich
  • Länderverzeichnis
  • Für 7 Tage
  • Wassertemperatur
  • Wetterkarte
  • News
  • Widgets
  • user-avatar
    Anmelden

    Stündliche Wetter Medina

    Heute, 19 Januar, Sonntag

    Zeit Temperatur Niederschläge Wind Luftdruck Luftfeuchtigkeit
    00:00 +24°C° 0.9 mm 1 m/S 714 mmHg 92%
    01:00 +24°C° 0.9 mm 1 m/S 714 mmHg 92%
    02:00 +24°C° 0.2 mm 1 m/S 713 mmHg 91%
    03:00 +24°C° 0.2 mm 1 m/S 713 mmHg 91%
    04:00 +24°C° 0.2 mm 1 m/S 713 mmHg 90%
    05:00 +24°C° 0.1 mm 1 m/S 713 mmHg 90%
    06:00 +24°C° 0.1 mm 1 m/S 714 mmHg 89%
    07:00 +25°C° 0.1 mm 1 m/S 714 mmHg 88%
    08:00 +26°C° 0.4 mm 1 m/S 714 mmHg 84%
    09:00 +28°C° 0.4 mm 1 m/S 715 mmHg 79%
    10:00 +29°C° 0.4 mm 2 m/S 716 mmHg 75%
    11:00 +30°C° 0.3 mm 2 m/S 715 mmHg 70%
    12:00 +31°C° 0.3 mm 2 m/S 714 mmHg 66%
    13:00 +32°C° 0.3 mm 2 m/S 713 mmHg 62%
    14:00 +32°C° 0.2 mm 2 m/S 712 mmHg 62%
    15:00 +32°C° 0.2 mm 2 m/S 711 mmHg 63%
    16:00 +32°C° 0.2 mm 2 m/S 710 mmHg 64%
    17:00 +30°C° 0.2 mm 1 m/S 711 mmHg 69%
    18:00 +28°C° 0.2 mm 1 m/S 712 mmHg 74%
    19:00 +27°C° 0.2 mm 1 m/S 712 mmHg 80%
    20:00 +26°C° 0.2 mm 1 m/S 713 mmHg 81%
    21:00 +26°C° 0.2 mm 1 m/S 714 mmHg 82%
    22:00 +26°C° 0.2 mm 1 m/S 714 mmHg 83%
    23:00 +25°C° 0 mm 1 m/S 714 mmHg 83%

    Morgen, 20 Januar, Montag

    Zeit Temperatur Niederschläge Wind Luftdruck Luftfeuchtigkeit
    00:00 +25°C° 0 mm 1 m/S 714 mmHg 83%
    01:00 +25°C° 0 mm 1 m/S 713 mmHg 83%
    02:00 +24°C° 0 mm 1 m/S 713 mmHg 83%
    03:00 +24°C° 0 mm 1 m/S 713 mmHg 82%
    04:00 +24°C° 0 mm 1 m/S 713 mmHg 82%
    05:00 +24°C° 0 mm 1 m/S 713 mmHg 81%
    06:00 +24°C° 0 mm 1 m/S 714 mmHg 81%
    07:00 +25°C° 0 mm 1 m/S 714 mmHg 80%
    08:00 +26°C° 0 mm 1 m/S 715 mmHg 75%
    09:00 +28°C° 0 mm 1 m/S 715 mmHg 70%
    10:00 +30°C° 0 mm 1 m/S 715 mmHg 64%
    11:00 +31°C° 0.1 mm 1 m/S 715 mmHg 61%
    12:00 +32°C° 0.1 mm 1 m/S 714 mmHg 58%
    13:00 +33°C° 0.1 mm 1 m/S 713 mmHg 55%
    14:00 +33°C° 0.1 mm 1 m/S 712 mmHg 56%
    15:00 +32°C° 0.1 mm 1 m/S 712 mmHg 57%
    16:00 +32°C° 0.1 mm 1 m/S 711 mmHg 58%
    17:00 +30°C° 0.3 mm 1 m/S 711 mmHg 65%
    18:00 +28°C° 0.3 mm 1 m/S 712 mmHg 72%
    19:00 +27°C° 0.3 mm 1 m/S 712 mmHg 79%
    20:00 +26°C° 1.1 mm 1 m/S 713 mmHg 83%
    21:00 +26°C° 1.1 mm 1 m/S 713 mmHg 86%
    22:00 +25°C° 1.1 mm 1 m/S 714 mmHg 90%
    23:00 +25°C° 0.7 mm 1 m/S 713 mmHg 90%

    übermorgen, 21 Januar, Dienstag

    Zeit Temperatur Niederschläge Wind Luftdruck Luftfeuchtigkeit
    00:00 +25°C° 0.7 mm 1 m/S 713 mmHg 90%
    01:00 +25°C° 0.7 mm 1 m/S 713 mmHg 90%
    02:00 +25°C° 0.3 mm 1 m/S 713 mmHg 89%
    03:00 +25°C° 0.3 mm 1 m/S 712 mmHg 89%
    04:00 +25°C° 0.3 mm 1 m/S 712 mmHg 88%
    05:00 +23°C° 0.3 mm 0 m/S 713 mmHg 88%
    06:00 +23°C° 0.3 mm 0 m/S 713 mmHg 88%
    07:00 +23°C° 0.3 mm 0 m/S 714 mmHg 87%
    08:00 +26°C° 0.2 mm 1 m/S 714 mmHg 84%
    09:00 +28°C° 0.2 mm 1 m/S 714 mmHg 80%
    10:00 +29°C° 0.2 mm 1 m/S 715 mmHg 76%
    11:00 +29°C° 0.7 mm 1 m/S 714 mmHg 75%
    12:00 +30°C° 0.7 mm 1 m/S 713 mmHg 74%
    13:00 +30°C° 0.7 mm 1 m/S 713 mmHg 73%
    14:00 +30°C° 0.6 mm 1 m/S 712 mmHg 74%
    15:00 +30°C° 0.6 mm 1 m/S 712 mmHg 75%
    16:00 +30°C° 0.6 mm 1 m/S 711 mmHg 76%
    17:00 +28°C° 0.5 mm 1 m/S 711 mmHg 79%
    18:00 +27°C° 0.5 mm 1 m/S 712 mmHg 82%
    19:00 +26°C° 0.5 mm 1 m/S 712 mmHg 85%
    20:00 +26°C° 1.4 mm 1 m/S 712 mmHg 86%
    21:00 +25°C° 1.4 mm 1 m/S 713 mmHg 88%
    22:00 +25°C° 1.4 mm 1 m/S 713 mmHg 89%
    23:00 +25°C° 0.5 mm 1 m/S 713 mmHg 89%

    22 Januar, Mittwoch

    Zeit Temperatur Niederschläge Wind Luftdruck Luftfeuchtigkeit
    00:00 +25°C° 0.5 mm 1 m/S 713 mmHg 89%
    01:00 +25°C° 0.5 mm 1 m/S 713 mmHg 89%
    02:00 +25°C° 0.7 mm 1 m/S 712 mmHg 89%
    03:00 +25°C° 0.7 mm 1 m/S 712 mmHg 90%
    04:00 +24°C° 0.7 mm 1 m/S 712 mmHg 90%
    05:00 +25°C° 0.2 mm 1 m/S 712 mmHg 89%
    06:00 +25°C° 0.2 mm 1 m/S 713 mmHg 89%
    07:00 +25°C° 0.2 mm 1 m/S 713 mmHg 88%
    08:00 +26°C° 0.1 mm 1 m/S 713 mmHg 82%
    09:00 +28°C° 0.1 mm 1 m/S 714 mmHg 76%
    10:00 +30°C° 0.1 mm 1 m/S 714 mmHg 70%
    11:00 +30°C° 0.1 mm 1 m/S 714 mmHg 67%
    12:00 +31°C° 0.1 mm 1 m/S 713 mmHg 65%
    13:00 +32°C° 0.1 mm 1 m/S 712 mmHg 62%
    14:00 +31°C° 0.3 mm 1 m/S 711 mmHg 64%
    15:00 +31°C° 0.3 mm 1 m/S 711 mmHg 67%
    16:00 +31°C° 0.3 mm 1 m/S 710 mmHg 69%
    17:00 +29°C° 0.5 mm 1 m/S 710 mmHg 73%
    18:00 +28°C° 0.5 mm 1 m/S 711 mmHg 78%
    19:00 +27°C° 0.5 mm 1 m/S 711 mmHg 82%
    20:00 +26°C° 1.1 mm 1 m/S 712 mmHg 83%
    21:00 +26°C° 1.1 mm 1 m/S 712 mmHg 84%
    22:00 +26°C° 1.1 mm 1 m/S 713 mmHg 85%
    23:00 +26°C° 0.3 mm 1 m/S 713 mmHg 85%

    23 Januar, Donnerstag

    Zeit Temperatur Niederschläge Wind Luftdruck Luftfeuchtigkeit
    00:00 +26°C° 0.3 mm 1 m/S 712 mmHg 86%
    01:00 +25°C° 0.3 mm 1 m/S 712 mmHg 86%
    02:00 +25°C° 0.1 mm 1 m/S 712 mmHg 85%
    03:00 +25°C° 0.1 mm 1 m/S 712 mmHg 84%
    04:00 +25°C° 0.1 mm 1 m/S 711 mmHg 83%
    05:00 +25°C° 0 mm 1 m/S 712 mmHg 82%
    06:00 +25°C° 0 mm 1 m/S 713 mmHg 82%
    07:00 +26°C° 0 mm 1 m/S 713 mmHg 81%
    08:00 +27°C° 0.2 mm 1 m/S 714 mmHg 77%
    09:00 +29°C° 0.2 mm 1 m/S 714 mmHg 72%
    10:00 +30°C° 0.2 mm 1 m/S 715 mmHg 67%
    11:00 +31°C° 0.8 mm 1 m/S 714 mmHg 66%
    12:00 +31°C° 0.8 mm 1 m/S 713 mmHg 66%
    13:00 +32°C° 0.8 mm 1 m/S 713 mmHg 65%
    14:00 +31°C° 0.9 mm 1 m/S 712 mmHg 70%
    15:00 +30°C° 0.9 mm 1 m/S 711 mmHg 74%
    16:00 +29°C° 0.9 mm 1 m/S 710 mmHg 78%
    17:00 +28°C° 0.6 mm 1 m/S 711 mmHg 80%
    18:00 +27°C° 0.6 mm 1 m/S 711 mmHg 81%
    19:00 +27°C° 0.6 mm 2 m/S 711 mmHg 82%
    20:00 +26°C° 1.3 mm 2 m/S 712 mmHg 84%
    21:00 +26°C° 1.3 mm 2 m/S 713 mmHg 85%
    22:00 +26°C° 1.3 mm 2 m/S 713 mmHg 86%
    23:00 +26°C° 0.5 mm 1 m/S 713 mmHg 86%

    24 Januar, Freitag

    Zeit Temperatur Niederschläge Wind Luftdruck Luftfeuchtigkeit
    00:00 +26°C° 0.5 mm 1 m/S 713 mmHg 86%
    01:00 +25°C° 0.5 mm 1 m/S 712 mmHg 86%
    02:00 +25°C° 0 mm 1 m/S 712 mmHg 86%
    03:00 +25°C° 0 mm 1 m/S 712 mmHg 86%
    04:00 +25°C° 0 mm 1 m/S 711 mmHg 85%
    05:00 +25°C° 0 mm 1 m/S 712 mmHg 85%
    06:00 +25°C° 0 mm 1 m/S 713 mmHg 84%
    07:00 +25°C° 0 mm 1 m/S 714 mmHg 83%
    08:00 +27°C° 0 mm 1 m/S 714 mmHg 76%
    09:00 +29°C° 0 mm 1 m/S 714 mmHg 70%
    10:00 +31°C° 0 mm 2 m/S 715 mmHg 63%
    11:00 +31°C° 0.1 mm 2 m/S 714 mmHg 62%
    12:00 +32°C° 0.1 mm 2 m/S 713 mmHg 60%
    13:00 +32°C° 0.1 mm 2 m/S 712 mmHg 59%
    14:00 +32°C° 0.1 mm 1 m/S 712 mmHg 63%
    15:00 +31°C° 0.1 mm 1 m/S 711 mmHg 66%
    16:00 +30°C° 0.1 mm 1 m/S 711 mmHg 70%
    17:00 +29°C° 0.1 mm 1 m/S 711 mmHg 72%
    18:00 +28°C° 0.1 mm 1 m/S 712 mmHg 74%
    19:00 +27°C° 0.1 mm 1 m/S 712 mmHg 76%
    20:00 +27°C° 0.1 mm 1 m/S 713 mmHg 76%
    21:00 +27°C° 0.1 mm 1 m/S 713 mmHg 75%
    22:00 +27°C° 0.1 mm 1 m/S 714 mmHg 74%
    23:00 +27°C° 0.1 mm 1 m/S 714 mmHg 75%
    Mehr zeigen